This is the latest recevied weather packets stored in our database for station/object KG4AGD. If no packets are shown the sender has not sent any weather packets the latest 10 day(s).
| Time | Temp. | Humidity | Pressure | Rain* | Wind** | Luminosity | Snow |
|---|---|---|---|---|---|---|---|
| 1778084131 | 26.11° C | 60% | 1015.9 hPa | 0 mm | - | - | - |
| 1778083828 | 26.11° C | 60% | 1015.9 hPa | 0 mm | - | - | - |
| 1778083526 | 26.11° C | 61% | 1015.9 hPa | 0 mm | - | - | - |
| 1778083223 | 25.56° C | 61% | 1015.9 hPa | 0 mm | - | - | - |
| 1778082920 | 26.11° C | 60% | 1015.5 hPa | 0 mm | - | - | - |
| 1778082618 | 26.11° C | 59% | 1015.5 hPa | 0 mm | - | - | - |
| 1778082314 | 25.56° C | 62% | 1015.5 hPa | 0 mm | - | - | - |
| 1778082012 | 25° C | 64% | 1015.9 hPa | 0 mm | - | - | - |
| 1778081709 | 25° C | 63% | 1015.9 hPa | 0 mm | - | - | - |
| 1778081407 | 24.44° C | 65% | 1015.9 hPa | 0 mm | - | - | - |
| 1778081105 | 24.44° C | 64% | 1015.9 hPa | 0 mm | - | - | - |
| 1778080800 | 25° C | 63% | 1016.2 hPa | 0 mm | - | - | - |
| 1778080497 | 25° C | 63% | 1015.9 hPa | 0 mm | - | - | - |
| 1778080195 | 24.44° C | 64% | 1015.9 hPa | 0 mm | - | - | - |
| 1778079892 | 23.89° C | 65% | 1016.2 hPa | 0 mm | - | - | - |
| 1778079590 | 23.33° C | 65% | 1016.2 hPa | 0 mm | - | - | - |
| 1778079287 | 23.89° C | 65% | 1016.5 hPa | 0 mm | - | - | - |
| 1778078985 | 23.33° C | 65% | 1016.5 hPa | 0 mm | - | - | - |
| 1778078682 | 22.78° C | 66% | 1016.2 hPa | 0 mm | - | - | - |
| 1778078379 | 22.78° C | 67% | 1016.2 hPa | 0 mm | - | - | - |
| 1778078077 | 22.78° C | 67% | 1016.5 hPa | 0 mm | - | - | - |
| 1778077774 | 23.33° C | 68% | 1016.2 hPa | 0 mm | - | - | - |
| 1778077471 | 22.78° C | 68% | 1016.5 hPa | 0 mm | - | - | - |
| 1778077169 | 23.33° C | 67% | 1016.5 hPa | 0 mm | - | - | - |
| 1778076866 | 22.78° C | 69% | 1016.2 hPa | 0 mm | - | - | - |
* Rain since midnight (hover to see other rain measurements)
** Current wind speed in m/s (hover to see current wind gust speed)